Regional Weather Roundup
Issued by NWS

Home | Current Version | Previous Version | Text Only | Print | Product List | Glossary On
Versions: 1 2 3 4 5 6 7 8 9 10 11 12 13 14 15 16 17 18 19 20 21 22 23 24 25 26 27 28 29 30 31 32 33 34 35 36 37 38 39 40 41 42 43 44 45 46 47 48 49 50
000
ASUS43 KMKX 191721
RWRWI

WISCONSIN REGIONAL WEATHER ROUNDUP
NATIONAL WEATHER SERVICE MILWAUKEE/SULLIVAN WI
1200 PM CDT SAT APR 19 2014

NOTE: "FAIR" INDICATES FEW OR NO CLOUDS BELOW 12,000 FEET WITH NO
SIGNIFICANT WEATHER AND/OR OBSTRUCTIONS TO VISIBILITY.

WIZ001-002-006>008-014>016-023>028-191800-
NORTHWEST WISCONSIN

CITY           SKY/WX    TMP DP  RH WIND       PRES   REMARKS
SUPERIOR ARPT  CLOUDY    37  32  84 NE9       30.09S WCI  30
ASHLAND        CLOUDY    44  24  45 VRB7      30.11F
HAYWARD        CLOUDY    44  26  49 S17G23    30.11F
SIREN          CLOUDY    45  28  51 S17G26    30.05F
RICE LAKE      CLOUDY    50  28  42 SE21G26   30.14F
LADYSMITH      MOSUNNY   48  30  49 S18G26    30.20F
EAU CLAIRE     MOSUNNY   55  28  35 SE15G23   30.16F
MENOMONIE      CLOUDY    55  30  37 SE18G28   30.15F
NEW RICHMOND   CLOUDY    52  33  47 S17       30.09F
OSCEOLA        CLOUDY    51  34  51 SE21      30.09F
$$

WIZ003>005-009-010-017-018-191800-
NORTH CENTRAL WISCONSIN

CITY           SKY/WX    TMP DP  RH WIND       PRES   REMARKS
WOODRUFF       MOSUNNY   49  24  37 S13G24    30.22F
RHINELANDER    MOSUNNY   42  23  46 S13G21    30.26F
EAGLE RIVER    MOSUNNY   44  20  38 S14G22    30.25F
LAND O LAKES   PTSUNNY   45  19  35 S14G25    30.24F
PHILLIPS       MOSUNNY   44  26  47 S15       30.19F
TOMAHAWK       SUNNY     45  25  45 SE9       30.25F
MEDFORD        SUNNY     46  30  53 SE12G23   30.23F
MERRILL        SUNNY     47  28  47 CALM      30.26F
$$

WIZ029-030-035-036-043>047-191800-
CENTRAL WISCONSIN

CITY           SKY/WX    TMP DP  RH WIND       PRES   REMARKS
WAUSAU         FAIR      49  25  39 S18G26    30.26F
MOSINEE        SUNNY     46  28  49 SE16      30.29F
MARSHFIELD     MOSUNNY   50  30  46 SE15G23   30.25F
STEVENS POINT  MOSUNNY   46  26  45 SE13      30.30F
WAUPACA        MOSUNNY   48  28  46 SE12G18   30.33F
WAUTOMA        PTSUNNY   52  28  39 SE15      30.31F
WISC RAPIDS    PTSUNNY   52  26  36 SE12G21   30.29F
CAMP DOUGLAS   MOSUNNY   54  29  38 SE16G25   30.25F
$$

WIZ011>013-019>022-031-037>040-048>050-191800-
NORTHEAST WISCONSIN

CITY           SKY/WX    TMP DP  RH WIND       PRES   REMARKS
ANTIGO         SUNNY     44  29  56 SE17      30.29F
STURGEON BAY   SUNNY     43  28  56 S16       30.38F
GREEN BAY      MOSUNNY   47  33  58 SE15      30.36F
MANITOWOC      MOSUNNY   39  31  72 S16       30.38F WCI  30
APPLETON       PTSUNNY   45  30  57 SE13G22   30.34F
CLINTONVILLE   MOSUNNY   46  28  49 SE14      30.34F
OSHKOSH        MOSUNNY   47  29  49 SE15      30.34F
$$

WIZ032>034-041-042-053>061-191800-
SOUTHWEST WISCONSIN

CITY           SKY/WX    TMP DP  RH WIND       PRES   REMARKS
LA CROSSE      MOSUNNY   57  29  34 S16G25    30.20F
SPARTA         MOSUNNY   57  27  31 S15       30.24F
VIROQUA        FAIR      55  31  39 SE20G25   30.22F
BOSCOBEL       MOSUNNY   60  29  30 SE8G17    30.26F
PRAIRIE DU CHI MOSUNNY   57  26  30 SE13G20   30.24F
PLATTEVILLE    FAIR      57  31  36 SE14G20   30.28F
$$

WIZ056-057-062-063-064-067-068-191800-
SOUTH CENTRAL WISCONSIN

CITY           SKY/WX    TMP DP  RH WIND       PRES   REMARKS
BARABOO/DELLS  PTSUNNY   53  28  37 SE16      30.28F
LONE ROCK      MOSUNNY   57  32  38 SE15      30.28F
WATERTOWN      MOSUNNY   52  33  47 SE10G18   30.32F
MADISON        PTSUNNY   54  31  41 S13       30.31F
MIDDLETON      FAIR      56  30  37 S16       30.30F
MONROE         MOSUNNY   56  31  39 S12G18    30.30F
JANESVILLE     SUNNY     55  32  41 E14       30.32F
$$

WIZ051-052-058>065-066-070>072-191800-
SOUTHEAST WISCONSIN

CITY           SKY/WX    TMP DP  RH WIND       PRES   REMARKS
MILWAUKEE      PTSUNNY   43  33  68 SE13      30.39F
WAUKESHA       SUNNY     46  30  53 E13       30.37S
MILWAUKEE/TIMM SUNNY     43  30  61 E9        30.39F
RACINE         PTSUNNY   43  33  68 SE14      30.39F
BURLINGTON     PTSUNNY   50  35  57 S9        30.35F
KENOSHA        MOSUNNY   44  34  67 SE13      30.37F
FOND DU LAC    MOSUNNY   49  31  49 SE18      30.34F
SHEBOYGAN      MOSUNNY   42  31  64 S13G20    30.38F
WEST BEND      MOSUNNY   43  32  65 SE13      30.35F
JUNEAU         PTSUNNY   50  26  40 SE14      30.34F
$$

LSZ147-162-191800-
LAKE SUPERIOR

STATION/POSITION TIME  TEMP    WIND        PRES    WAVE
                       AIR SEA DIR/SP/G            HT/PER
                 (UTC) (F)     (DEG/KT/KT) (MB)    (FT/S)
DEVILS ISLAND    1700   33      80/ 12/ 13 1021.1F
PORT WING        1600   34      50/ 12/ 14 1020.3
SAXON HARBOR     1640          200/  1/  6 1019.6F
$$

LMZ867-665-643>646-191800-
LAKE MICHIGAN

STATION/POSITION TIME  TEMP    WIND        PRES    WAVE
                       AIR SEA DIR/SP/G            HT/PER
                 (UTC) (F)     (DEG/KT/KT) (MB)    (FT/S)
NORTHPORT PIER   1600   34     140/ 10/ 11 1030.1F
SISTER BAY       1623   46     130/ 14/ 20   N/A
KEWAUNEE LAKESHO 1700   35     170/  9/ 12 1029.6F
SHEBOYGAN LAKESH 1700   36     150/  8/  8 1029.7F
PORT WASHINGTON  1640   38     130/  6/  7 1029.8F
MILWAUKEE LAKESH 1700   36     120/  8/  9   N/A
KENOSHA   LAKESH 1700   39     110/  6/  7   N/A
$$

TC  - TEMPERATURE IN CELSIUS
VSB - VISIBILITY IN STATUTE MILES
WCI - WIND CHILL INDEX
HX  - HEAT INDEX




USA.gov is the U.S. government's official web portal to all federal, state and local government web resources and services.